Powrót do katalogu

METEOSAT 6

AktywnyPogodaGEO
NORAD 22912·PAYLOAD·🇪🇺 EU

Wystrzelony Nov 20, 1993 z Guiana Space Centre

Loading…

TLE

ŚwieżeSource: Space-Track

Epoka: Sep 14, 2026, 11:25 UTC

1 22912U 93073B   26257.47607428 -.00000020  00000-0  00000-0 0  9991
2 22912  14.5054   0.6473 0009196 234.0624 141.1948  0.98983945117904

Śledź METEOSAT 6 w czasie rzeczywistym z AllMySat

Download on the App Store